Pontiac, MI

8:57 PM EDT on March 27, 2017 (GMT -0400)
Oakland County International

Weather History for KPTK - July, 2013

Change the Weather History Date:

Friday, July 12, 2013

  Actual Average Record
Temperature  
Mean Temperature 68 °F -  
Max Temperature 80 °F 80 °F 91 °F (2016)
Min Temperature 55 °F 59 °F 46 °F (2002)
Cooling Degree Days 2    
Growing Degree Days 18 (Base 50)    
Moisture  
Dew Point 56 °F    
Average Humidity 66    
Maximum Humidity 90    
Minimum Humidity 43    
Precipitation  
Precipitation 0.00 in - - ()
Sea Level Pressure  
Sea Level Pressure 30.13 in    
Wind  
Wind Speed 4 mph (NE)    
Max Wind Speed 8 mph    
Max Gust Speed -    
Visibility 10 miles    
Events      
Averages and records for this station are not official NWS values.
T = Trace of Precipitation, MM = Missing Value Source: NWS Daily Summary

Daily Weather History Graph

Daily Weather History Graph

Search for Another Location

Airport or City:

Trip Planner

Search our weather history database for the weather conditions in past years. The results will help you decide how hot, cold, wet, or windy it might be!

Date:

Astronomy

Jul. 12, 2013 Rise Set
Actual Time 6:06 AM EDT 9:11 PM EDT
Civil Twilight 5:32 AM EDT 9:45 PM EDT
Nautical Twilight 4:49 AM EDT 10:28 PM EDT
Astronomical Twilight 3:57 AM EDT 11:20 PM EDT
Moon 10:29 AM EDT (7/12) 11:13 PM EDT (7/12)
Length of Visible Light 16h 12m
Length of Day
15h 04m
Waxing Crescent, 17% of the Moon is Illuminated
Jul 12
Waxing Crescent
Jul 15
First Quarter
Jul 22
Full
Jul 29
Last Quarter
Aug 6
New

Hourly Weather History & Observations

Time (EDT) Temp. Heat Index Dew Point Humidity Pressure Visibility Wind Dir Wind Speed Gust Speed Precip Events Conditions
12:53 AM 61.0 °F - 55.9 °F 83% 30.08 in 10.0 mi NE 3.5 mph - N/A   Clear
1:53 AM 59.0 °F - 54.0 °F 83% 30.09 in 10.0 mi Calm Calm - N/A   Clear
2:53 AM 57.9 °F - 54.0 °F 87% 30.09 in 10.0 mi Calm Calm - N/A   Clear
3:53 AM 57.0 °F - 53.1 °F 87% 30.09 in 10.0 mi North 3.5 mph - N/A   Clear
4:53 AM 55.9 °F - 53.1 °F 90% 30.11 in 10.0 mi North 4.6 mph - N/A   Clear
5:53 AM 55.9 °F - 53.1 °F 90% 30.13 in 10.0 mi North 4.6 mph - N/A   Clear
6:53 AM 57.0 °F - 54.0 °F 89% 30.14 in 10.0 mi North 4.6 mph - N/A   Clear
7:53 AM 61.0 °F - 55.0 °F 81% 30.14 in 10.0 mi NNE 8.1 mph - N/A   Partly Cloudy
8:53 AM 64.0 °F - 55.0 °F 73% 30.16 in 10.0 mi NE 8.1 mph - N/A   Partly Cloudy
9:53 AM 68.0 °F - 57.0 °F 68% 30.17 in 10.0 mi ENE 6.9 mph - N/A   Partly Cloudy
10:53 AM 71.1 °F - 57.9 °F 63% 30.16 in 10.0 mi ENE 8.1 mph - N/A   Partly Cloudy
11:53 AM 73.0 °F - 59.0 °F 61% 30.15 in 10.0 mi NE 8.1 mph - N/A   Partly Cloudy
12:53 PM 75.0 °F - 57.9 °F 55% 30.14 in 10.0 mi ENE 5.8 mph - N/A   Partly Cloudy
1:53 PM 77.0 °F - 57.9 °F 52% 30.13 in 10.0 mi East 5.8 mph - N/A   Scattered Clouds
2:53 PM 77.0 °F - 55.9 °F 48% 30.14 in 10.0 mi ENE 5.8 mph - N/A   Scattered Clouds
3:53 PM 79.0 °F - 55.0 °F 44% 30.13 in 10.0 mi Variable 5.8 mph - N/A   Scattered Clouds
4:53 PM 80.1 °F 80.2 °F 55.9 °F 43% 30.13 in 10.0 mi East 6.9 mph - N/A   Scattered Clouds
5:53 PM 79.0 °F - 55.0 °F 44% 30.12 in 10.0 mi NNE 5.8 mph - N/A   Partly Cloudy
6:53 PM 77.0 °F - 55.9 °F 48% 30.12 in 10.0 mi Calm Calm - N/A   Partly Cloudy
7:53 PM 78.1 °F - 55.9 °F 46% 30.12 in 10.0 mi NNE 6.9 mph - N/A   Partly Cloudy
8:53 PM 73.9 °F - 57.0 °F 55% 30.12 in 10.0 mi ENE 4.6 mph - N/A   Scattered Clouds
9:53 PM 71.1 °F - 57.0 °F 61% 30.14 in 10.0 mi East 5.8 mph - N/A   Scattered Clouds
10:53 PM 70.0 °F - 57.9 °F 65% 30.14 in 10.0 mi East 6.9 mph - N/A   Scattered Clouds
11:53 PM 68.0 °F - 55.9 °F 65% 30.16 in 10.0 mi East 6.9 mph - N/A   Clear